Weather in Sloboda

Russia / Sverdlovsk Oblast     57°01′31″N   59°33′25″E
temp.,
°C
wind,
m/s
gust,
m/s
humid.,
%
clouds,
%
prec.,
mm/h
press.,
hPa
HPBL,
m
26 july, mon
mon2623:00+9wnw227015 0.0 101915
02:00+10wsw1163100 0.0 101928
05:00+10w256599 0.0 1020144
08:00+13w3656100 0.0 1019369
11:00+16wnw4739100 0.0 10192505
14:00+16w464773 0.0 10191727
17:00+18w574191 0.0 10172248
20:00+14w497094 0.0 1017464
27 july, tue
tue2723:00+12wsw397647 0.0 1017312
02:00+11wsw3107659 0.0 1016332
05:00+11sw3127263 0.0 1014379
08:00+14wsw41167100 0.0 1013778
11:00+11w41098100 1.7 1013654
14:00+14w488899 0.7 1012994
17:00+17wnw5861100 0.9 10101575
20:00+13nw4978100 0.4 1011658
28 july, wed
wed2823:00+8nw248954 0.4 101293
02:00+6w22965 0.0 101320
05:00+5wsw279699 0.0 1012145
08:00+11w4106812 0.0 1011677
11:00+14wnw61257100 0.2 10101849
14:00+13nw596897 0.9 10101671
17:00+13wnw5105357 1.1 10111662
20:00+12nw36545 0.0 1012528
29 july, thu
thu2923:00+6wsw228597 0.0 101317
02:00+7sw237498 0.0 101273
05:00+8ssw3794100 0.6 1010162
08:00+9ssw2594100 0.9 1010132
11:00+17wnw495677 0.9 1008873
14:00+20nnw274899 0.3 10081636
17:00+17wsw3870100 0.4 1007343
20:00+13sw2109688 6.7 1007353
30 july, fri
fri3023:00+12sw41198100 8.8 1007300
02:00+13sw399826 0.4 1006252
05:00+12sw3109952 0.6 1007312
08:00+14wsw3897100 0.0 1007430
11:00+16wsw3591100 0.0 1007510
14:00+21sw3463100 0.0 10051140
17:00+19sw3688100 1.2 1004426
20:00+17wnw1194100 1.0 100411